Regional Weather Roundup
Issued by NWS Sioux Falls, SD

Home | Current Version | Previous Version | Graphics & Text | Print | Product List | Glossary Off
Versions: 1 2 3 4 5 6 7 8 9 10 11 12 13 14 15 16 17 18 19 20 21 22 23 24 25 26 27 28 29 30 31 32 33 34 35 36 37 38 39 40 41 42 43 44 45 46 47 48 49 50

000
ASUS43 KFSD 231310
RWRFSD

WEATHER ROUNDUP FOR SE SOUTH DAKOTA/SW MINNESOTA/NW IOWA
NATIONAL WEATHER SERVICE SIOUX FALLS SD
800 AM CDT SAT JUL 23 2016

NOTE: "FAIR" INDICATES FEW OR NO CLOUDS BELOW 12,000 FEET WITH NO
SIGNIFICANT WEATHER AND OR OBSTRUCTIONS TO VISIBILITY.


SDZ038>040-050-052>070-231400-
SOUTHEAST SOUTH DAKOTA

CITY           SKY/WX    TMP DP  RH WIND       PRES   REMARKS
BROOKINGS      RAIN      68  67  96 SE3       29.85F
CHAMBERLAIN    MOSUNNY   73  70  90 SE8       29.78S
HURON          CLOUDY    71  70  96 E8        29.77R
MADISON        LGT RAIN  66  66 100 E15G21    29.84F
MITCHELL       CLOUDY    71  69  93 E12       29.79F
SIOUX FALLS    LGT RAIN  72  70  93 NE10      29.81F
WINNER         FAIR      74  65  73 W5        29.80R
YANKTON        CLOUDY    75  72  88 NE6       29.81R
$$

MNZ071-072-080-081-089-090-097-098-231400-
SOUTHWEST MINNESOTA

CITY           SKY/WX    TMP DP  RH WIND       PRES   REMARKS
FAIRMONT       CLOUDY    77  73  88 SE12      29.87F
JACKSON        CLOUDY    79  73  83 SE8       29.89F FOG
LUVERNE        TSTM      75  70  83 NW6       29.88R
MARSHALL       CLOUDY    70  66  88 NW15G28   29.85F FOG
MONTEVIDEO     CLOUDY    73  73 100 SE8       29.86S
REDWOOD FALLS  CLOUDY    77  74  90 E7        29.84F
TRACY          CLOUDY    78  78  99 SE6       29.87R FOG
WINDOM         CLOUDY    77  73  88 SE8G16    29.86F
WORTHINGTON    CLOUDY    77  76  96 S6        29.88F
$$

IAZ001>003-012>014-020>022-031-032-NEZ013-014-SDZ071-231400-
NORTHWEST IOWA

CITY           SKY/WX    TMP DP  RH WIND       PRES   REMARKS
CHEROKEE       CLOUDY    78  76  94 SE8       29.87R
DENISON        CLOUDY    79  72  78 VRB7G13   29.83F
ESTHERVILLE    CLOUDY    76  76 100 S12       29.88S
LE MARS        CLOUDY    79  77  94 SW10      29.86R
SHELDON        CLOUDY    77  77 100 CALM      29.85F
SIOUX CITY     CLOUDY    79  75  87 S9        29.84R
SPENCER        CLOUDY    78  73  84 S8        29.87S
STORM LAKE     PTSUNNY   77  75  94 SE9       29.90R
$$

ABBREVIATIONS USED IN REMARKS
   TC - TEMPERATURE IN CELSIUS
  WCI - WIND CHILL INDEX
   HX - HEAT INDEX
  VSB - VISIBILITY




USA.gov is the U.S. government's official web portal to all federal, state and local government web resources and services.